Regional Weather Roundup
Issued by NWS

Home | Current Version | Previous Version | Graphics & Text | Print | Product List | Glossary On
Versions: 1 2 3 4 5 6 7 8 9 10 11 12 13 14 15 16 17 18 19 20 21 22 23 24 25 26 27 28 29 30 31 32 33 34 35 36 37 38 39 40 41 42 43 44 45 46 47 48 49 50
000
ASUS43 KBIS 201159
RWRND

NORTH DAKOTA REGIONAL WEATHER ROUNDUP
NATIONAL WEATHER SERVICE BISMARCK ND
700 AM CDT MON OCT 20 2014

NOTE: "FAIR" INDICATES FEW OR NO CLOUDS BELOW 12,000 FEET WITH NO
SIGNIFICANT WEATHER AND/OR OBSTRUCTIONS TO VISIBILITY.


NDZ001>003-009>011-017-201300-
NORTHWEST NORTH DAKOTA

CITY           SKY/WX    TMP DP  RH WIND       PRES   REMARKS
WILLISTON      CLEAR     35  33  92 CALM      29.98S
6HR MIN TEMP:  33; 6HR MAX TEMP:  40;

MINOT          FAIR      47  35  63 SW8       30.00S
$$

NDZ018>021-031>035-040>046-201300-
SOUTHWEST NORTH DAKOTA

CITY           SKY/WX    TMP DP  RH WIND       PRES   REMARKS
BISMARCK       MOCLDY    32  31  96 NE5       30.06S
6HR MIN TEMP:  31; 6HR MAX TEMP:  39;

DICKINSON      CLEAR     41  35  79 S12       30.01S
GARRISON         N/A     35  34  96 CALM      30.03R
6HR MIN TEMP:  33; 6HR MAX TEMP:  40;

HETTINGER ARPT PTCLDY    43  34  70 SE5       30.05F
$$

NDZ004>008-012>016-024-026-027-054-201300-
NORTHEAST NORTH DAKOTA

CITY           SKY/WX    TMP DP  RH WIND       PRES   REMARKS
GRAND FORKS    CLEAR     34  33  96 NW5       30.04R
DEVILS LAKE    CLEAR     37  28  70 CALM      30.04R
$$

NDZ022-023-025-028>030-036>039-047>053-201300-
SOUTHEAST NORTH DAKOTA

CITY           SKY/WX    TMP DP  RH WIND       PRES   REMARKS
FARGO          CLEAR     39  35  86 NW7       30.03R
6HR MIN TEMP:  36; 6HR MAX TEMP:  45;

JAMESTOWN      CLEAR     39  35  86 W5        30.04S
$$




USA.gov is the U.S. government's official web portal to all federal, state and local government web resources and services.